This demonstration page uses our WeatherBlox Daily Observations layout. Learn more.

Left ArrowRight Arrow

34.16533, -84.80231

Hourly Observations for August 28, 2018

Temp ( °F °C ) Dew Point ( °F °C ) Humidity (%) Winds ( mph kmh ) Pressure ( in mb ) Visibility ( mi km ) Precip ( " mm )
12:53 am 00:53 Clear 71 21.7 71 21.7 100 100 Calm 30.11 1020 10 16 0.00 0.00
1:53 am 01:53 Clear 70 21.1 70 21.1 100 100 Calm 30.10 1019 9 14 0.00 0.00
2:53 am 02:53 Clear 69 20.6 69 20.6 100 100 Calm 30.09 1019 8 13 0.00 0.00
3:53 am 03:53 Clear 68 20 68 20 100 100 Calm 30.09 1019 8 13 0.00 0.00
4:53 am 04:53 Clear 69 20.6 69 20.6 100 100 Calm 30.10 1019 8 13 0.00 0.00
5:53 am 05:53 Clear 68 20 68 20 100 100 Calm 30.11 1020 8 13 0.00 0.00
6:53 am 06:53 Clear 68 20 68 20 100 100 Calm 30.14 1021 7 11 0.00 0.00
7:53 am 07:53 Sunny 71 21.7 70 21.1 96 96 Calm 30.17 1022 7 11 0.00 0.00
8:53 am 08:53 Sunny 77 25 73 22.8 88 88 Calm 30.18 1022 9 14 0.00 0.00
9:53 am 09:53 Partly Cloudy 81 27.2 72 22.2 74 74 E 5 7 30.18 1022 10 16 0.00 0.00
10:53 am 10:53 Sunny 85 29.4 72 22.2 65 65 SE 5 7 30.18 1022 10 16 0.00 0.00
11:53 am 11:53 Cloudy 84 28.9 73 22.8 70 70 Calm 30.17 1022 10 16 0.00 0.00
12:53 pm 12:53 Mostly Sunny 88 31.1 70 21.1 55 55 Calm 30.15 1021 10 16 0.00 0.00
1:53 pm 13:53 Sunny 90 32.2 70 21.1 52 52 VRB 3 6 30.14 1021 10 16 0.00 0.00
2:53 pm 14:53 Sunny 93 33.9 68 20 44 44 ENE 7 11 30.12 1020 10 16 0.00 0.00
3:53 pm 15:53 Sunny 90 32.2 70 21.1 52 52 SE 7 11 30.10 1019 10 16 0.00 0.00
4:53 pm 16:53 Sunny 91 32.8 68 20 47 47 SE 6 9 30.08 1019 10 16 0.00 0.00
5:53 pm 17:53 Sunny 91 32.8 67 19.4 45 45 VRB 3 6 30.06 1018 10 16 0.00 0.00
6:53 pm 18:53 Sunny 89 31.7 68 20 50 50 Calm 30.06 1018 10 16 0.00 0.00
7:53 pm 19:53 Sunny 80 26.7 75 23.9 85 85 Calm 30.07 1018 10 16 0.00 0.00
8:53 pm 20:53 Clear 76 24.4 73 22.8 91 91 Calm 30.08 1019 10 16 0.00 0.00
9:53 pm 21:53 Clear 76 24.4 72 22.2 88 88 S 3 6 30.10 1019 10 16 0.00 0.00
10:53 pm 22:53 Clear 75 23.9 73 22.8 94 94 Calm 30.11 1020 10 16 0.00 0.00
11:53 pm 23:53 Clear 73 22.8 72 22.2 96 96 Calm 30.11 1020 10 16 0.00 0.00

Powered by AerisWeather